User: anonymous   Login
Location: Ostrava
(49.8330°N, 18.2830°E)
Time: 09:09:11
(UTC+02:00)
Language:

NOAA 19 - Orbit

View from above orbital plane
View from above orbital plane
View from above satellite
View from above satellite

Ground track
Ground track

The orbit data is extracted from the following two-line orbital elements,

1 33591U 09005A   16268.49856141  .00000094  00000-0  76293-4 0  9990
2 33591  99.0515 226.1394 0013185 302.5031  57.4865 14.12109039393157
Epoch (UTC): 24 September 2016 11:57:55
Eccentricity: 0.0013185
inclination: 99.0515°
perigee height: 842 km
apogee height: 861 km
right ascension of ascending node: 226.1394°
argument of perigee: 302.5031°
revolutions per day: 14.12109039
mean anomaly at epoch: 57.4865°
orbit number at epoch: 39315

The dashed part of the orbit path shows where the satellite is in the earth's shadow,  

DLR